Voltar ao catálogo

NOAA 16 DEB

AtivoSSO
NORAD 41162·DEBRIS·🇺🇸 United States

Lançado Sep 21, 2000 de Vandenberg Space Force Base

Loading…

Próximas Passagens (próximas 24 horas)

TLE

AtualizadoSource: Space-Track

Época: Sep 13, 2026, 02:55 UTC

1 41162U 00055CV  26256.12167195  .00002333  00000-0  95015-3 0  9991
2 41162  98.7130 320.2860 0025994 293.1154  66.7288 14.28256788556238

Acompanhe NOAA 16 DEB em tempo real com AllMySat

Download on the App Store